This demonstration page uses our WeatherBlox Daily Observations layout. Learn more.

Left ArrowRight Arrow

Hourly Observations for December 6, 2019

Temp ( °F °C ) Dew Point ( °F °C ) Humidity (%) Winds ( mph kmh ) Pressure ( in mb ) Visibility ( mi km ) Precip ( " mm )
12:56 am 00:56 Cloudy 34 1 27 -3 75 75 N 12 19 30.27 1025 10 16 0.00 0.00
1:56 am 01:56 Mostly Cloudy 34 1 27 -3 75 75 NNW 10 17 30.29 1026 10 16 0.00 0.00
2:56 am 02:56 Cloudy 32 0 25 -4 75 75 N 13 20 30.33 1027 10 16 0.00 0.00
3:56 am 03:56 Cloudy 30 -1 23 -5 75 75 NNW 13 20 30.35 1028 10 16 0.00 0.00
4:56 am 04:56 Cloudy 28 -2 21 -6 74 74 N 14 22 30.37 1028 10 16 0.00 0.00
5:56 am 05:56 Mostly Cloudy 28 -2 19 -7 69 69 N 10 17 30.39 1029 10 16 0.00 0.00
6:56 am 06:56 Partly Cloudy 27 -3 18 -8 69 69 N 13 20 30.41 1030 10 16 0.00 0.00
7:56 am 07:56 Sunny 25 -4 16 -9 69 69 NNE 8 13 30.45 1031 10 16 0.00 0.00
8:56 am 08:56 Mostly Sunny 25 -4 16 -9 69 69 N 6 9 30.47 1032 10 16 0.00 0.00
9:56 am 09:56 Sunny 27 -3 18 -8 69 69 N 7 11 30.50 1033 10 16 0.00 0.00
10:56 am 10:56 Sunny 30 -1 19 -7 64 64 Calm 30.51 1033 10 16 0.00 0.00
11:56 am 11:56 undefined N/A N/A N/A NE 5 7 N/A 10 16 0.00 0.00
12:56 pm 12:56 Sunny 34 1 19 -7 56 56 Calm 30.45 1031 10 16 0.00 0.00
1:56 pm 13:56 Sunny 36 2 19 -7 52 52 Calm 30.44 1031 10 16 0.00 0.00
2:56 pm 14:56 Sunny 36 2 19 -7 52 52 Calm 30.42 1030 10 16 0.00 0.00
3:56 pm 15:56 Sunny 36 2 19 -7 52 52 ESE 5 7 30.43 1030 10 16 0.00 0.00
4:56 pm 16:56 Clear 34 1 19 -7 56 56 SE 5 7 30.43 1031 10 16 0.00 0.00
5:56 pm 17:56 undefined N/A N/A N/A ESE 5 7 N/A 10 16 0.00 0.00
6:56 pm 18:56 Clear 32 0 21 -6 64 64 Calm 30.42 1030 10 16 0.00 0.00
7:56 pm 19:56 Clear 30 -1 23 -5 75 75 ESE 5 7 30.42 1030 10 16 0.00 0.00
8:56 pm 20:56 Clear 28 -2 21 -6 74 74 ESE 3 6 30.41 1030 10 16 0.00 0.00
9:56 pm 21:56 Clear 28 -2 21 -6 74 74 Calm 30.40 1030 10 16 0.00 0.00
10:56 pm 22:56 Clear 28 -2 21 -6 74 74 S 6 9 30.39 1029 10 16 0.00 0.00
11:56 pm 23:56 Clear 27 -3 21 -6 80 80 S 6 9 30.38 1029 10 16 0.00 0.00

Powered by AerisWeather